Content
SEND FEEDBACK

Daily
Averages
Monthly
Summary
United States of America

NEW YORK - CENTRAL PARK, NEW YORK


Home > North America > United States > New York
Elevation: 14 feet     Latitude: 40 47N     Longitude: 073 58W

WEATHER
 
SELECT A DAY
Number of Records: 148,192;   Date Range: 11/1/95 - 8/28/14
 
SHARE

PRINT THIS DATA

[ ← Previous Day ]
WEATHER ALMANAC - JANUARY 26, 2013
[ Next Day → ]
[ °C ]   °F
Weather ElementAverageHighLow
Temperature20.5 °F26.1 °F (12:51 pm)15.1 °F (6:51 am)
Dewpoint6.8 °F10.9 °F (1:51 am)3.9 °F (5:51 pm)
Humidity57 %77 % (1:51 am)41 % (2:51 pm)
Barometer30.17 in30.37 in (10:51 pm)30.04 in (3:51 am)
Wind Speed6.8 mph11.5 mph (4:51 pm)
Wind Gust18.4 mph (8:51 pm)
Weather ElementAverage
Visibility10 mi
Wind DirectionSSE (145.7 °)

Weather ElementTotal
Precipitation---
Heating Degree Days44.4 (Base 65)
Averaged from 23 records on January 26, 2013
WEATHER CONDITIONS BREAKOUT
WIND DIRECTION BREAKOUT
WEATHER BY HOUR - JANUARY 26, 2013
[ °C ]   °F
Local TimeTemperatureDewpointHumidityBarometerVisibilityWind DirectionWind SpeedGust SpeedPrecipitationEventsConditions
1:51 AM17.1 °F10.9 °F77 %30.06 in10.0 miVariable4.6 mphClear
2:51 AM16.0 °F10.0 °F77 %30.05 in10.0 miWNW (290°)6.9 mphClear
3:51 AM16.0 °F10.0 °F77 %30.04 in10.0 miNW (310°)6.9 mphClear
4:51 AM16.0 °F9.0 °F74 %30.05 in10.0 miWNW (300°)4.6 mphClear
5:51 AM16.0 °F8.1 °F71 %30.09 in10.0 miVariable3.5 mphClear
6:51 AM15.1 °F7.0 °F70 %30.10 in10.0 miVariable6.9 mphClear
7:51 AM16.0 °F7.0 °F68 %30.13 in10.0 miNW (310°)3.5 mphClear
8:51 AM17.1 °F8.1 °F68 %30.14 in10.0 miNorthClear
9:51 AM18.0 °F7.0 °F62 %30.15 in10.0 miVariable5.8 mphClear
10:51 AM19.9 °F8.1 °F60 %30.16 in10.0 miWNW (300°)9.2 mphClear
11:51 AM21.9 °F8.1 °F55 %30.16 in10.0 miWNW (290°)8.1 mphMostly Cloudy
12:51 PM26.1 °F8.1 °F47 %30.13 in10.0 miVariable6.9 mphScattered Clouds
1:51 PM25.0 °F6.1 °F45 %30.14 in10.0 miVariable4.6 mphClear
2:51 PM26.1 °F5.0 °F41 %30.14 in10.0 miWNW (290°)8.1 mphClear
3:51 PM26.1 °F5.0 °F41 %30.15 in10.0 miNorthClear
4:51 PM26.1 °F5.0 °F41 %30.17 in10.0 miNW (310°)11.5 mph17.3 mphClear
5:51 PM25.0 °F3.9 °F41 %30.22 in10.0 miVariable6.9 mph17.3 mphClear
6:51 PM23.0 °F5.0 °F46 %30.25 in10.0 miNorthClear
7:51 PM23.0 °F5.0 °F46 %30.28 in10.0 miVariable6.9 mphClear
8:51 PM21.0 °F3.9 °F48 %30.31 in10.0 miNorth (350°)10.4 mph18.4 mphClear
9:51 PM21.0 °F5.0 °F50 %30.34 in10.0 miVariable5.8 mphClear
10:51 PM19.9 °F5.0 °F52 %30.37 in10.0 miWNW (290°)8.1 mphClear
11:51 PM19.9 °F6.1 °F55 %30.37 in10.0 miNW (310°)6.9 mphClear
Hourly data recorded from KNYC, located miles away from New York - Central Park, New York







STORIES FROM OUR PARTNERS